Weather reports worldwide

Advertisment
Herstmonceux, United Kingdom (3882): temperature & dewpoint: 10.09.2019 16:00:00 - 16.09.2019 16:00:00 (BST)Herstmonceux, United Kingdom (3882): temperature -20cm & temperature -100cm: 10.09.2019 16:00:00 - 16.09.2019 16:00:00 (BST)Herstmonceux, United Kingdom (3882): wind speed & gusts: 10.09.2019 16:00:00 - 16.09.2019 16:00:00 (BST)Herstmonceux, United Kingdom (3882): wind direction: 10.09.2019 16:00:00 - 16.09.2019 16:00:00 (BST)Herstmonceux, United Kingdom (3882): reduced air pressure: 10.09.2019 16:00:00 - 16.09.2019 16:00:00 (BST)Herstmonceux, United Kingdom (3882): visibility: 10.09.2019 16:00:00 - 16.09.2019 16:00:00 (BST)Herstmonceux, United Kingdom (3882): sunshine duration: 10.09.2019 16:00:00 - 16.09.2019 16:00:00 (BST)Herstmonceux, United Kingdom (3882): precipitation: 10.09.2019 16:00:00 - 16.09.2019 16:00:00 (BST)
Date & Time tt [°C] td [°C] tt -20cm [°C] tt -100cm [°C] ff [km/h] ff [kn] fx [km/h] fx [kn] dd ppp [hPa] vv [km] sd [min] rr [mm]
16.09.2019 16:00:00 20,6 15,4 - - 9 5 - - NNW 1021,2 50 0 0,0
16.09.2019 15:00:00 20,6 15,5 - - 8 4 - - NW 1021,3 45 0 0,0
16.09.2019 14:00:00 20,7 15,6 - - 9 5 - - WNW 1021,4 40 0 0,0
16.09.2019 13:00:00 21,1 15,7 - - 11 6 - - NW 1021,4 35 18 0,0
16.09.2019 12:00:00 20,5 16,0 - - 9 5 - - WNW 1021,7 19 24 0,0
16.09.2019 11:00:00 18,2 15,6 - - 8 4 - - WNW 1021,8 11 0 0,0
16.09.2019 10:00:00 17,1 15,5 17,4 16,7 5 3 - - NW 1021,9 14 0 0,0
16.09.2019 09:00:00 15,7 14,7 - - 4 2 - - WNW 1021,9 10 0 0,0
16.09.2019 08:00:00 14,7 14,1 - - 8 4 - - NNW 1021,3 9 0 0,0
16.09.2019 07:00:00 14,4 13,8 - - 8 4 - - NW 1021,0 7 0 0,0
16.09.2019 06:00:00 14,4 13,8 - - 5 3 - - NNW 1021,0 8 0 0,0
16.09.2019 05:00:00 14,7 14,0 - - 5 3 - - NNW 1021,1 10 0 0,0
16.09.2019 04:00:00 14,7 13,9 - - 5 3 - - NW 1021,3 13 0 0,0
16.09.2019 03:00:00 15,2 13,9 - - 5 3 - - NNW 1021,6 18 0 0,0
16.09.2019 02:00:00 15,4 13,9 - - 9 5 - - NW 1022,1 20 0 0,0
16.09.2019 01:00:00 15,9 14,3 - - 9 5 - - NW 1022,1 27 - 0,0
16.09.2019 00:00:00 15,7 14,3 - - 5 3 - - WNW 1022,6 22 0 0,0
15.09.2019 23:00:00 15,1 12,6 - - 4 2 - - WNW 1022,8 45 0 0,0
15.09.2019 22:00:00 15,1 12,7 - - 4 2 - - W 1023,1 35 0 0,0
15.09.2019 21:00:00 14,9 11,9 - - 4 2 - - W 1023,2 45 0 0,0
15.09.2019 20:00:00 16,0 12,2 - - 4 2 - - W 1023,1 40 0 0,0
15.09.2019 19:00:00 18,0 12,4 - - 5 3 - - SW 1022,8 45 24 0,0
15.09.2019 18:00:00 20,4 11,9 - - 9 5 - - SW 1022,7 45 54 0,0
15.09.2019 17:00:00 22,2 12,3 - - 9 5 - - SW 1022,8 40 60 0,0
15.09.2019 16:00:00 22,6 11,3 - - 13 7 - - SW 1023,2 50 60 0,0
15.09.2019 15:00:00 24,0 13,1 - - 9 5 - - WSW 1023,5 40 60 0,0
15.09.2019 14:00:00 23,9 13,1 - - 8 4 - - WNW 1024,0 45 60 0,0
15.09.2019 13:00:00 22,6 12,5 - - 5 3 - - W 1024,5 40 60 0,0
15.09.2019 12:00:00 21,2 10,5 - - 5 3 - - W 1025,2 30 60 0,0
15.09.2019 11:00:00 19,0 10,9 - - 8 4 - - W 1025,6 25 60 0,0
15.09.2019 10:00:00 16,4 12,8 17,0 16,9 5 3 - - W 1025,6 26 60 0,0
15.09.2019 09:00:00 14,0 12,1 - - 5 3 - - W 1025,7 25 12 0,2
15.09.2019 08:00:00 11,9 11,1 - - 5 3 - - NNW 1025,5 23 0 0,0
15.09.2019 07:00:00 11,2 10,5 - - 5 3 - - NNW 1025,4 18 0 0,0
15.09.2019 06:00:00 11,0 10,6 - - 4 2 - - NW 1025,5 12 0 0,0
15.09.2019 05:00:00 11,5 11,1 - - 5 3 - - NW 1025,7 13 0 0,0
15.09.2019 04:00:00 9,7 9,5 - - 4 2 - - NW 1026,3 3,9 0 0,0
15.09.2019 03:00:00 10,0 9,6 - - 4 2 - - WNW 1026,6 0,4 0 0,0
15.09.2019 02:00:00 11,4 11,2 - - 5 3 - - NNE 1027,3 0,2 0 0,0
15.09.2019 01:00:00 11,7 11,6 - - 5 3 - - N 1027,4 6 - 0,0
15.09.2019 00:00:00 11,1 10,6 - - 5 3 - - N 1027,6 10 0 0,0
14.09.2019 23:00:00 11,3 10,5 - - 4 2 - - N 1028,2 12 0 0,0
14.09.2019 22:00:00 12,2 11,3 - - 2 1 - - NE 1028,5 19 0 0,0
14.09.2019 21:00:00 12,7 10,9 - - 4 2 - - NNE 1028,9 26 0 0,0
14.09.2019 20:00:00 14,3 11,4 - - 0 0 - - N 1029,0 30 0 0,0
14.09.2019 19:00:00 17,0 12,2 - - 2 1 - - SSW 1028,8 45 12 0,0
14.09.2019 18:00:00 20,1 11,5 - - 5 3 - - S 1029,1 50 60 0,0
14.09.2019 17:00:00 20,8 10,2 - - 8 4 - - S 1029,4 40 60 0,0
14.09.2019 16:00:00 21,7 12,5 - - 9 5 - - S 1029,8 45 60 0,0
14.09.2019 15:00:00 22,7 13,2 - - 4 2 - - S 1030,4 30 60 0,0
14.09.2019 14:00:00 22,2 11,0 - - 5 3 - - E 1031,4 26 60 0,0
14.09.2019 13:00:00 20,9 11,8 - - 8 4 - - ENE 1032,2 40 60 0,0
14.09.2019 12:00:00 20,1 12,2 - - 5 3 - - E 1032,7 26 60 0,0
14.09.2019 11:00:00 18,8 12,5 - - 9 5 - - E 1033,1 28 60 0,0
14.09.2019 10:00:00 16,6 12,9 17,2 16,9 8 4 - - NE 1033,6 26 60 0,0
14.09.2019 09:00:00 13,8 12,7 - - 8 4 - - ENE 1034,0 35 12 0,0
14.09.2019 08:00:00 10,5 10,4 - - 4 2 - - ENE 1034,0 23 0 0,0
14.09.2019 07:00:00 8,9 8,5 - - 4 2 - - NE 1034,1 21 0 0,0
14.09.2019 06:00:00 9,1 8,6 - - 2 1 - - NE 1034,1 18 0 0,0
14.09.2019 05:00:00 9,5 8,9 - - 5 3 - - ENE 1034,4 16 0 0,0
14.09.2019 04:00:00 10,6 9,7 - - 5 3 - - ENE 1034,9 21 0 0,0
14.09.2019 03:00:00 10,6 9,7 - - 5 3 - - ENE 1035,0 23 0 0,0
14.09.2019 02:00:00 10,5 9,7 - - 4 2 - - NE 1035,1 21 0 0,0
14.09.2019 01:00:00 10,8 9,9 - - 4 2 - - ENE 1035,4 22 - 0,0
14.09.2019 00:00:00 11,5 10,2 - - 5 3 - - ENE 1035,8 25 0 0,0
13.09.2019 23:00:00 11,4 10,5 - - 4 2 - - ENE 1035,7 22 0 0,0
13.09.2019 22:00:00 11,8 10,4 - - 4 2 - - ENE 1035,8 28 0 0,0
13.09.2019 21:00:00 13,1 11,3 - - 5 3 - - E 1035,5 29 0 0,0
13.09.2019 20:00:00 14,3 11,4 - - 4 2 - - E 1035,0 30 0 0,0
13.09.2019 19:00:00 17,0 12,4 - - 8 4 - - ESE 1034,5 35 18 0,0
13.09.2019 18:00:00 19,6 13,4 - - 8 4 - - E 1034,2 29 42 0,0
13.09.2019 17:00:00 20,4 14,1 - - 9 5 - - ESE 1034,1 35 30 0,0
13.09.2019 16:00:00 20,6 14,3 - - 9 5 - - SE 1034,0 40 24 0,0
13.09.2019 15:00:00 20,9 14,7 - - 5 3 - - SSE 1034,2 30 24 0,0
13.09.2019 14:00:00 20,7 11,6 - - 9 5 - - E 1034,2 40 48 0,0
13.09.2019 13:00:00 19,8 12,2 - - 9 5 - - N 1034,3 40 54 0,0
13.09.2019 12:00:00 18,9 12,2 - - 8 4 - - NE 1034,3 40 24 0,0
13.09.2019 11:00:00 17,7 12,1 - - 9 5 - - NE 1034,5 30 12 0,0
13.09.2019 10:00:00 16,6 12,9 17,2 16,9 11 6 - - NNE 1034,2 40 0 0,0
13.09.2019 09:00:00 16,4 13,0 - - 13 7 - - NNE 1033,3 40 0 0,0
13.09.2019 08:00:00 16,3 13,7 - - 11 6 - - NNE 1032,6 50 0 0,0
13.09.2019 07:00:00 16,1 15,6 - - 4 2 - - N 1032,1 10 0 0,0
13.09.2019 06:00:00 16,2 15,7 - - 5 3 - - WNW 1031,4 5 0 0,0
13.09.2019 05:00:00 16,3 15,5 - - 8 4 - - W 1030,8 5 0 0,0
13.09.2019 04:00:00 16,2 15,4 - - 4 2 - - W 1030,5 11 0 0,0
13.09.2019 03:00:00 16,4 15,3 - - 4 2 - - WSW 1030,3 11 0 0,0
13.09.2019 02:00:00 16,7 15,3 - - 11 6 - - W 1030,3 12 0 0,0
13.09.2019 01:00:00 17,1 15,3 - - 11 6 - - W 1030,2 13 - 0,0
13.09.2019 00:00:00 17,1 15,0 - - 9 5 - - WSW 1030,0 17 0 0,0
12.09.2019 23:00:00 17,2 15,1 - - 13 7 - - W 1030,2 16 0 0,0
12.09.2019 22:00:00 17,1 15,3 - - 9 5 - - W 1030,1 18 0 0,0
12.09.2019 21:00:00 17,3 15,4 - - 16 9 - - W 1029,6 14 0 0,0
12.09.2019 20:00:00 17,5 15,3 - - 16 9 - - WSW 1029,3 20 0 0,0
12.09.2019 19:00:00 17,6 15,5 - - 13 7 - - WSW 1029,2 21 0 0,0
12.09.2019 18:00:00 17,9 15,6 - - 16 9 - - W 1028,9 17 0 0,0
12.09.2019 17:00:00 18,3 16,0 - - 16 9 - - W 1028,6 13 0 0,0
12.09.2019 16:00:00 18,7 15,8 - - 15 8 - - WSW 1028,9 14 0 0,0
12.09.2019 15:00:00 19,1 15,3 - - 15 8 - - WSW 1029,0 28 0 0,0
12.09.2019 14:00:00 19,7 16,0 - - 16 9 - - WSW 1029,0 30 0 0,0
12.09.2019 13:00:00 19,1 16,9 - - 13 7 - - WSW 1029,1 29 0 0,0
12.09.2019 12:00:00 18,9 16,6 - - 15 8 - - W 1029,2 30 0 0,0
12.09.2019 11:00:00 19,6 16,7 - - 15 8 - - W 1028,8 40 12 0,0
12.09.2019 10:00:00 18,2 16,0 17,0 16,9 11 6 - - W 1028,4 35 30 0,0
12.09.2019 09:00:00 16,3 14,5 - - 8 4 - - W 1028,2 45 18 0,2
12.09.2019 08:00:00 13,3 13,0 - - 5 3 - - W 1027,9 28 0 0,0
12.09.2019 07:00:00 12,5 12,0 - - 4 2 - - W 1026,9 29 0 0,0
12.09.2019 06:00:00 13,0 12,2 - - 4 2 - - WNW 1026,3 25 0 0,0
12.09.2019 05:00:00 14,1 13,3 - - 8 4 - - W 1026,0 35 0 0,0
12.09.2019 04:00:00 15,0 14,0 - - 8 4 - - W 1025,5 30 0 0,0
12.09.2019 03:00:00 16,1 15,3 - - 8 4 - - W 1025,5 18 0 0,0
12.09.2019 02:00:00 16,3 15,9 - - 8 4 - - W 1024,9 11 0 0,0
12.09.2019 01:00:00 16,6 16,0 - - 8 4 - - W 1024,8 10 - 0,0
12.09.2019 00:00:00 17,0 16,6 - - 5 3 - - WSW 1024,4 8 0 0,0
11.09.2019 23:00:00 17,1 16,7 - - 5 3 - - WSW 1024,2 8 0 0,0
11.09.2019 22:00:00 17,4 16,6 - - 9 5 - - WSW 1023,7 5 0 0,0
11.09.2019 21:00:00 17,6 16,5 - - 11 6 - - W 1023,3 12 0 0,0
11.09.2019 20:00:00 17,7 16,6 - - 13 7 - - W 1022,8 10 0 0,0
11.09.2019 19:00:00 17,7 16,6 - - 13 7 - - W 1022,1 11 0 0,0
11.09.2019 18:00:00 17,8 16,6 - - 16 9 - - W 1021,9 10 0 0,0
11.09.2019 17:00:00 17,6 16,4 - - 16 9 - - W 1021,5 6 0 0,0
11.09.2019 16:00:00 17,7 16,3 - - 18 10 - - W 1021,4 13 0 0,0
11.09.2019 15:00:00 17,6 16,5 - - 16 9 - - WSW 1021,3 11 0 0,0
11.09.2019 14:00:00 17,2 16,5 - - 16 9 - - WSW 1021,3 6 0 0,0
11.09.2019 13:00:00 17,0 16,2 - - 16 9 46 25 WSW 1021,3 2,8 0 0,0
11.09.2019 12:00:00 17,3 15,8 - - 15 8 - - WSW 1021,1 11 0 0,0
11.09.2019 11:00:00 16,8 15,6 - - 13 7 - - WSW 1021,4 10 0 0,0
11.09.2019 10:00:00 16,3 14,5 17,0 17,0 16 9 - - W 1020,9 9 0 0,0
11.09.2019 09:00:00 16,1 13,6 - - 13 7 - - WSW 1020,5 14 0 0,0
11.09.2019 08:00:00 15,4 12,2 - - 11 6 - - WSW 1020,5 18 0 0,0
11.09.2019 07:00:00 14,5 11,0 - - 9 5 - - W 1020,2 24 0 0,0
11.09.2019 06:00:00 13,9 10,0 - - 8 4 - - W 1020,5 26 0 0,0
11.09.2019 05:00:00 13,6 9,7 - - 9 5 - - W 1020,4 30 0 0,0
11.09.2019 04:00:00 12,8 10,3 - - 5 3 - - WSW 1020,5 35 0 0,0
11.09.2019 03:00:00 13,1 9,3 - - 5 3 - - W 1021,1 40 0 0,0
11.09.2019 02:00:00 13,6 10,3 - - 8 4 - - W 1021,5 45 0 0,0
11.09.2019 01:00:00 13,7 11,7 - - 5 3 - - WNW 1021,2 29 - 0,0
11.09.2019 00:00:00 13,4 12,2 - - 4 2 - - WNW 1021,4 15 0 0,0
10.09.2019 23:00:00 13,9 12,8 - - 5 3 - - W 1021,3 18 0 0,0
10.09.2019 22:00:00 14,1 12,6 - - 2 1 - - W 1021,2 10 0 0,0
10.09.2019 21:00:00 14,1 13,0 - - 4 2 - - W 1021,1 16 0 0,0
10.09.2019 20:00:00 14,6 12,7 - - 4 2 - - W 1020,8 25 0 0,0
10.09.2019 19:00:00 15,8 12,6 - - 8 4 - - W 1020,4 30 18 0,0
10.09.2019 18:00:00 17,3 12,3 - - 9 5 - - WSW 1020,0 30 30 0,0
10.09.2019 17:00:00 18,5 12,2 - - 11 6 - - W 1020,0 35 48 0,0
10.09.2019 16:00:00 18,0 11,7 - - 8 4 - - SW 1019,8 50 0 0,0

tt = temperature
td = dewpoint
tt -20cm = temperature -20cm
tt -100cm = temperature -100cm
ff = wind speed
fx = gusts
dd = wind direction
ppp = reduced air pressure
vv = visibility
sd = sunshine duration
rr = precipitation

Next stations